• In Uzbekistan
  • List of Countries
  • For 7 days
  • Water Temperature
  • Satellite Maps
  • Weather Map
  • Weather Widgets
  • user-avatar
    Login

    Hourly Weather Kozani

    Today, 21 February, Wednesday

    Time Temperature Precipitation Wind Pressure Humidity
    00:00 +4°C° 0.7 mm 2 mps 697 mmHg 95%
    01:00 +4°C° 0.7 mm 2 mps 697 mmHg 95%
    02:00 +4°C° 0.6 mm 2 mps 697 mmHg 95%
    03:00 +4°C° 0.6 mm 2 mps 697 mmHg 96%
    04:00 +4°C° 0.6 mm 2 mps 697 mmHg 96%
    05:00 +4°C° 0.6 mm 2 mps 697 mmHg 95%
    06:00 +3°C° 0.6 mm 2 mps 697 mmHg 95%
    07:00 +3°C° 0.6 mm 2 mps 697 mmHg 95%
    08:00 +4°C° 0.5 mm 2 mps 697 mmHg 94%
    09:00 +4°C° 0.5 mm 2 mps 697 mmHg 92%
    10:00 +5°C° 0.5 mm 2 mps 697 mmHg 91%
    11:00 +5°C° 0.4 mm 2 mps 696 mmHg 89%
    12:00 +6°C° 0.4 mm 2 mps 696 mmHg 88%
    13:00 +5°C° 0.4 mm 3 mps 696 mmHg 86%
    14:00 +6°C° 0.5 mm 2 mps 696 mmHg 87%
    15:00 +6°C° 0.5 mm 2 mps 696 mmHg 88%
    16:00 +6°C° 0.5 mm 2 mps 696 mmHg 89%
    17:00 +5°C° 0.8 mm 2 mps 696 mmHg 91%
    18:00 +5°C° 0.8 mm 2 mps 696 mmHg 92%
    19:00 +5°C° 0.8 mm 2 mps 696 mmHg 94%
    20:00 +5°C° 1.1 mm 2 mps 696 mmHg 94%
    21:00 +5°C° 1.1 mm 2 mps 696 mmHg 94%
    22:00 +6°C° 1.1 mm 1 mps 696 mmHg 95%
    23:00 +6°C° 1 mm 1 mps 696 mmHg 95%

    Tomorrow, 22 February, Thursday

    Time Temperature Precipitation Wind Pressure Humidity
    00:00 +5°C° 1 mm 1 mps 696 mmHg 96%
    01:00 +5°C° 1 mm 1 mps 697 mmHg 96%
    02:00 +5°C° 0.5 mm 1 mps 696 mmHg 96%
    03:00 +5°C° 0.5 mm 1 mps 696 mmHg 96%
    04:00 +5°C° 0.5 mm 1 mps 696 mmHg 96%
    05:00 +5°C° 0.3 mm 1 mps 696 mmHg 96%
    06:00 +5°C° 0.3 mm 1 mps 697 mmHg 96%
    07:00 +5°C° 0.3 mm 1 mps 697 mmHg 95%
    08:00 +6°C° 0.1 mm 1 mps 697 mmHg 93%
    09:00 +7°C° 0.1 mm 1 mps 697 mmHg 90%
    10:00 +6°C° 0.1 mm 2 mps 698 mmHg 88%
    11:00 +7°C° 0.2 mm 2 mps 698 mmHg 85%
    12:00 +8°C° 0.2 mm 2 mps 697 mmHg 83%
    13:00 +8°C° 0.2 mm 2 mps 697 mmHg 80%
    14:00 +8°C° 0.2 mm 2 mps 697 mmHg 81%
    15:00 +8°C° 0.2 mm 2 mps 697 mmHg 82%
    16:00 +8°C° 0.2 mm 2 mps 697 mmHg 82%
    17:00 +7°C° 0.1 mm 2 mps 698 mmHg 86%
    18:00 +6°C° 0.1 mm 2 mps 698 mmHg 90%
    19:00 +7°C° 0.1 mm 1 mps 698 mmHg 93%
    20:00 +6°C° 0.1 mm 1 mps 699 mmHg 94%
    21:00 +6°C° 0.1 mm 1 mps 699 mmHg 95%
    22:00 +6°C° 0.1 mm 1 mps 699 mmHg 96%
    23:00 +6°C° 0.1 mm 1 mps 699 mmHg 96%

    Day after tomorrow, 23 February, Friday

    Time Temperature Precipitation Wind Pressure Humidity
    00:00 +6°C° 0.1 mm 1 mps 699 mmHg 96%
    01:00 +6°C° 0.1 mm 1 mps 699 mmHg 96%
    02:00 +6°C° 0.1 mm 1 mps 699 mmHg 96%
    03:00 +6°C° 0.1 mm 1 mps 699 mmHg 96%
    04:00 +6°C° 0.1 mm 1 mps 699 mmHg 96%
    05:00 +6°C° 0 mm 1 mps 699 mmHg 96%
    06:00 +6°C° 0 mm 1 mps 699 mmHg 96%
    07:00 +6°C° 0 mm 1 mps 699 mmHg 95%
    08:00 +7°C° 0.1 mm 1 mps 699 mmHg 93%
    09:00 +7°C° 0.1 mm 1 mps 700 mmHg 90%
    10:00 +7°C° 0.1 mm 2 mps 700 mmHg 87%
    11:00 +7°C° 0.2 mm 2 mps 699 mmHg 86%
    12:00 +8°C° 0.2 mm 2 mps 699 mmHg 85%
    13:00 +8°C° 0.2 mm 2 mps 699 mmHg 84%
    14:00 +8°C° 0.2 mm 2 mps 699 mmHg 86%
    15:00 +8°C° 0.2 mm 2 mps 699 mmHg 87%
    16:00 +7°C° 0.2 mm 2 mps 699 mmHg 89%
    17:00 +7°C° 0.1 mm 2 mps 699 mmHg 91%
    18:00 +7°C° 0.1 mm 2 mps 700 mmHg 93%
    19:00 +7°C° 0.1 mm 1 mps 700 mmHg 95%
    20:00 +7°C° 0.2 mm 1 mps 700 mmHg 95%
    21:00 +7°C° 0.2 mm 1 mps 700 mmHg 95%
    22:00 +7°C° 0.2 mm 1 mps 700 mmHg 95%
    23:00 +7°C° 0.2 mm 1 mps 700 mmHg 96%

    24 February, Saturday

    Time Temperature Precipitation Wind Pressure Humidity
    00:00 +7°C° 0.2 mm 1 mps 700 mmHg 96%
    01:00 +6°C° 0.2 mm 2 mps 700 mmHg 97%
    02:00 +6°C° 0.2 mm 2 mps 699 mmHg 97%
    03:00 +6°C° 0.2 mm 2 mps 699 mmHg 97%
    04:00 +6°C° 0.2 mm 2 mps 699 mmHg 96%
    05:00 +6°C° 0.4 mm 2 mps 699 mmHg 96%
    06:00 +5°C° 0.4 mm 2 mps 699 mmHg 96%
    07:00 +5°C° 0.4 mm 2 mps 699 mmHg 96%
    08:00 +5°C° 1.3 mm 2 mps 699 mmHg 95%
    09:00 +6°C° 1.3 mm 2 mps 699 mmHg 94%
    10:00 +6°C° 1.3 mm 2 mps 699 mmHg 93%
    11:00 +6°C° 2 mm 2 mps 699 mmHg 93%
    12:00 +6°C° 2 mm 1 mps 699 mmHg 93%
    13:00 +6°C° 2 mm 1 mps 699 mmHg 93%
    14:00 +7°C° 0.8 mm 1 mps 698 mmHg 91%
    15:00 +7°C° 0.8 mm 1 mps 698 mmHg 90%
    16:00 +7°C° 0.8 mm 1 mps 698 mmHg 89%
    17:00 +6°C° 0.2 mm 1 mps 699 mmHg 90%
    18:00 +6°C° 0.2 mm 1 mps 699 mmHg 92%
    19:00 +6°C° 0.2 mm 1 mps 699 mmHg 94%
    20:00 +5°C° 0.2 mm 1 mps 699 mmHg 94%
    21:00 +5°C° 0.2 mm 1 mps 699 mmHg 94%
    22:00 +5°C° 0.2 mm 1 mps 699 mmHg 94%
    23:00 +5°C° 0.3 mm 1 mps 699 mmHg 94%

    25 February, Sunday

    Time Temperature Precipitation Wind Pressure Humidity
    00:00 +5°C° 0.3 mm 1 mps 699 mmHg 94%
    01:00 +5°C° 0.3 mm 1 mps 699 mmHg 95%
    02:00 +5°C° 0.5 mm 1 mps 699 mmHg 95%
    03:00 +5°C° 0.5 mm 1 mps 699 mmHg 95%
    04:00 +4°C° 0.5 mm 1 mps 699 mmHg 95%
    05:00 +4°C° 0.5 mm 1 mps 699 mmHg 95%
    06:00 +4°C° 0.5 mm 1 mps 699 mmHg 94%
    07:00 +4°C° 0.5 mm 1 mps 699 mmHg 94%
    08:00 +4°C° 0.4 mm 2 mps 699 mmHg 91%
    09:00 +5°C° 0.4 mm 2 mps 699 mmHg 87%
    10:00 +6°C° 0.4 mm 2 mps 699 mmHg 84%
    11:00 +5°C° 0.4 mm 3 mps 699 mmHg 83%
    12:00 +5°C° 0.4 mm 3 mps 699 mmHg 82%
    13:00 +5°C° 0.4 mm 3 mps 699 mmHg 81%
    14:00 +5°C° 0.5 mm 3 mps 699 mmHg 83%
    15:00 +4°C° 0.5 mm 3 mps 698 mmHg 84%
    16:00 +4°C° 0.5 mm 4 mps 698 mmHg 86%
    17:00 +4°C° 0.9 mm 3 mps 698 mmHg 88%
    18:00 +3°C° 0.9 mm 3 mps 698 mmHg 90%
    19:00 +3°C° 0.9 mm 3 mps 698 mmHg 92%
    20:00 +2°C° 1.7 mm 3 mps 698 mmHg 92%
    21:00 +2°C° 1.7 mm 3 mps 698 mmHg 93%
    22:00 +1°C° 1.7 mm 4 mps 697 mmHg 94%
    23:00 +1°C° 2 mm 4 mps 697 mmHg 94%

    26 February, Monday

    Time Temperature Precipitation Wind Pressure Humidity
    00:00 +1°C° 2 mm 4 mps 696 mmHg 94%
    01:00 0°C° 2 mm 4 mps 696 mmHg 94%
    02:00 0°C° 2.5 mm 4 mps 695 mmHg 94%
    03:00 0°C° 2.5 mm 4 mps 694 mmHg 94%
    04:00 0°C° 2.5 mm 4 mps 694 mmHg 95%
    05:00 +1°C° 2.6 mm 3 mps 694 mmHg 95%
    06:00 0°C° 2.6 mm 3 mps 693 mmHg 95%
    07:00 0°C° 2.6 mm 3 mps 693 mmHg 95%
    08:00 +1°C° 1.6 mm 2 mps 693 mmHg 95%
    09:00 +1°C° 1.6 mm 2 mps 693 mmHg 95%
    10:00 +1°C° 1.6 mm 2 mps 693 mmHg 95%
    11:00 +1°C° 0.5 mm 2 mps 693 mmHg 94%
    12:00 +2°C° 0.5 mm 2 mps 693 mmHg 94%
    13:00 +2°C° 0.5 mm 2 mps 693 mmHg 93%
    14:00 +2°C° 0.2 mm 2 mps 693 mmHg 93%
    15:00 +2°C° 0.2 mm 2 mps 694 mmHg 92%
    16:00 +2°C° 0.2 mm 2 mps 694 mmHg 92%
    17:00 +3°C° 0.1 mm 1 mps 694 mmHg 93%
    18:00 +2°C° 0.1 mm 1 mps 694 mmHg 94%
    19:00 +2°C° 0.1 mm 1 mps 694 mmHg 94%
    20:00 +2°C° 0.1 mm 1 mps 694 mmHg 94%
    21:00 +2°C° 0.1 mm 1 mps 695 mmHg 94%
    22:00 +2°C° 0.1 mm 1 mps 695 mmHg 94%
    23:00 +2°C° 0.1 mm 1 mps 695 mmHg 95%
    Show more